Helena, Arkansas, United States (72342)
Lat: 34.53N, Lon: 90.59W
Wx Zone: ARZ058
Local Info
Past Weather Observations for Wednesday, July 16, 2014

NOTE: This archive is for the closest National Weather Service station to Helena. Information may differ from the station used for current weather conditions.

Click here for Long-term Archive

Time Weather Temperature Dewpoint Humidity Pressure Winds Precip Visibility
23:55
Clear
66°F / 19°C 61°F / 16°C 83% 30.04 in
(1017 mb)
NE 4.6 mph
(NE 7 kph)
- 10SM
23:35
Clear
66°F / 19°C 63°F / 17°C 88% 30.04 in
(1017 mb)
NNE 3.5 mph
(NNE 6 kph)
- 10SM
22:55
Clear
68°F / 20°C 61°F / 16°C 78% 30.06 in
(1018 mb)
Calm - 10SM
22:35
Clear
66°F / 19°C 63°F / 17°C 88% 30.04 in
(1017 mb)
Calm - 10SM
22:15
Clear
66°F / 19°C 63°F / 17°C 88% 30.04 in
(1017 mb)
Calm - 10SM
21:55
Clear
68°F / 20°C 61°F / 16°C 78% 30.04 in
(1017 mb)
Calm - 10SM
21:35
Clear
66°F / 19°C 61°F / 16°C 83% 30.04 in
(1017 mb)
ENE 4.6 mph
(ENE 7 kph)
- 10SM
21:15
Clear
68°F / 20°C 61°F / 16°C 78% 30.04 in
(1017 mb)
NE 4.6 mph
(NE 7 kph)
- 10SM
20:55
Clear
68°F / 20°C 61°F / 16°C 78% 30.04 in
(1017 mb)
NE 4.6 mph
(NE 7 kph)
- 10SM
20:35
Clear
68°F / 20°C 61°F / 16°C 78% 30.04 in
(1017 mb)
ENE 3.5 mph
(ENE 6 kph)
- 10SM
20:15
Partly Cloudy
70°F / 21°C 61°F / 16°C 73% 30.04 in
(1017 mb)
NE 4.6 mph
(NE 7 kph)
- 10SM
19:55
Partly Cloudy
70°F / 21°C 61°F / 16°C 73% 30.04 in
(1017 mb)
NNE 4.6 mph
(NNE 7 kph)
- 10SM
19:35
Mostly Cloudy
70°F / 21°C 61°F / 16°C 73% 30.04 in
(1017 mb)
N 5.8 mph
(N 9 kph)
- 10SM
19:15
Mostly Cloudy
72°F / 22°C 61°F / 16°C 69% 30.04 in
(1017 mb)
NNE 4.6 mph
(NNE 7 kph)
- 10SM
18:55
Partly Cloudy
72°F / 22°C 61°F / 16°C 69% 30.01 in
(1016 mb)
N 4.6 mph
(N 7 kph)
- 10SM
18:35
Clear
72°F / 22°C 61°F / 16°C 69% 30.01 in
(1016 mb)
NNE 4.6 mph
(NNE 7 kph)
- 10SM
18:15
Partly Cloudy
73°F / 23°C 59°F / 15°C 61% 30.01 in
(1016 mb)
NNE 5.8 mph
(NNE 9 kph)
- 10SM
17:55
Mostly Cloudy
73°F / 23°C 59°F / 15°C 61% 30.01 in
(1016 mb)
N 5.8 mph
(N 9 kph)
- 10SM
17:35
Partly Cloudy
73°F / 23°C 57°F / 14°C 57% 30.01 in
(1016 mb)
N 5.8 mph
(N 9 kph)
- 10SM
17:15
Clear
79°F / 26°C 55°F / 13°C 45% 30.01 in
(1016 mb)
NW 6.9 mph
(NW 11 kph)
- 10SM
16:55
Partly Cloudy
75°F / 24°C 55°F / 13°C 50% 30.01 in
(1016 mb)
NW 5.8 mph
(NW 9 kph)
- 10SM
16:35
Partly Cloudy
77°F / 25°C 55°F / 13°C 47% 30.01 in
(1016 mb)
NNW 8.1 mph
(NNW 13 kph)
- 10SM
16:15
Partly Cloudy
79°F / 26°C 55°F / 13°C 45% 30.04 in
(1017 mb)
W 4.6 mph
(W 7 kph)
- 10SM
15:55
Mostly Cloudy
77°F / 25°C 55°F / 13°C 47% 30.04 in
(1017 mb)
NNW 6.9 mph
(NNW 11 kph)
- 10SM
15:35
Partly Cloudy
77°F / 25°C 55°F / 13°C 47% 30.04 in
(1017 mb)
N 4.6 mph
(N 7 kph)
- 10SM
15:15
Partly Cloudy
79°F / 26°C 55°F / 13°C 45% 30.04 in
(1017 mb)
NW 5.8 mph
(NW 9 kph)
- 10SM
14:55
Clear
79°F / 26°C 55°F / 13°C 45% 30.04 in
(1017 mb)
NNW 9.2 mph
(NNW 15 kph)
- 10SM
14:35
Partly Cloudy
79°F / 26°C 55°F / 13°C 45% 30.04 in
(1017 mb)
NW 6.9 mph
(NW 11 kph)
- 10SM
14:15
Partly Cloudy
77°F / 25°C 55°F / 13°C 47% 30.04 in
(1017 mb)
N 4.6 mph
(N 7 kph)
- 10SM
13:55
Clear
79°F / 26°C 54°F / 12°C 42% 30.04 in
(1017 mb)
N 4.6 mph
(N 7 kph)
- 10SM
13:35
Partly Cloudy
79°F / 26°C 55°F / 13°C 45% 30.04 in
(1017 mb)
WNW 6.9 mph
(WNW 11 kph)
- 10SM
13:15
Partly Cloudy
77°F / 25°C 54°F / 12°C 44% 30.06 in
(1018 mb)
NE 5.8 mph
(NE 9 kph)
- 10SM
12:55
Partly Cloudy
79°F / 26°C 54°F / 12°C 42% 30.06 in
(1018 mb)
N 6.9 mph
(N 11 kph)
- 10SM
12:35
Partly Cloudy
77°F / 25°C 55°F / 13°C 47% 30.06 in
(1018 mb)
N 4.6 mph
(N 7 kph)
- 10SM
12:15
Partly Cloudy
77°F / 25°C 55°F / 13°C 47% 30.06 in
(1018 mb)
NNE 5.8 mph
(NNE 9 kph)
- 10SM
11:55
Partly Cloudy
77°F / 25°C 54°F / 12°C 44% 30.06 in
(1018 mb)
NW 5.8 mph
(NW 9 kph)
- 10SM
11:35
Partly Cloudy
77°F / 25°C 54°F / 12°C 44% 30.06 in
(1018 mb)
Calm - 10SM
11:15
Clear
77°F / 25°C 52°F / 11°C 42% 30.06 in
(1018 mb)
N 6.9 mph
(N 11 kph)
- 10SM
10:55
Partly Cloudy
77°F / 25°C 54°F / 12°C 44% 30.06 in
(1018 mb)
NNW 8.1 mph
(NNW 13 kph)
- 10SM
10:35
Partly Cloudy
77°F / 25°C 54°F / 12°C 44% 30.06 in
(1018 mb)
N 5.8 mph
(N 9 kph)
- 10SM
10:15
Partly Cloudy
73°F / 23°C 54°F / 12°C 50% 30.06 in
(1018 mb)
N 4.6 mph
(N 7 kph)
- 10SM
09:55
Partly Cloudy
73°F / 23°C 55°F / 13°C 53% 30.06 in
(1018 mb)
N 4.6 mph
(N 7 kph)
- 10SM
09:35
Partly Cloudy
73°F / 23°C 55°F / 13°C 53% 30.06 in
(1018 mb)
NNE 4.6 mph
(NNE 7 kph)
- 10SM
09:15
Clear
73°F / 23°C 59°F / 15°C 61% 30.06 in
(1018 mb)
ENE 4.6 mph
(ENE 7 kph)
- 10SM
08:55
Clear
72°F / 22°C 57°F / 14°C 61% 30.06 in
(1018 mb)
ENE 5.8 mph
(ENE 9 kph)
- 10SM
08:35
Clear
72°F / 22°C 59°F / 15°C 65% 30.06 in
(1018 mb)
ENE 4.6 mph
(ENE 7 kph)
- 10SM
08:15
Clear
72°F / 22°C 59°F / 15°C 65% 30.06 in
(1018 mb)
ENE 3.5 mph
(ENE 6 kph)
- 10SM
07:55
Clear
70°F / 21°C 61°F / 16°C 73% 30.06 in
(1018 mb)
NE 4.6 mph
(NE 7 kph)
- 10SM
07:35
Clear
70°F / 21°C 59°F / 15°C 69% 30.09 in
(1019 mb)
Calm - 10SM
07:15
Clear
68°F / 20°C 61°F / 16°C 78% 30.09 in
(1019 mb)
NNE 3.5 mph
(NNE 6 kph)
- 10SM
06:55
Clear
68°F / 20°C 61°F / 16°C 78% 30.06 in
(1018 mb)
NE 3.5 mph
(NE 6 kph)
- 10SM
06:35
Clear
64°F / 18°C 63°F / 17°C 94% 30.06 in
(1018 mb)
Calm - 10SM
06:15
Clear
63°F / 17°C 63°F / 17°C 100% 30.06 in
(1018 mb)
NNW 3.5 mph
(NNW 6 kph)
- 10SM
05:55
Clear
61°F / 16°C 59°F / 15°C 94% 30.06 in
(1018 mb)
NNW 3.5 mph
(NNW 6 kph)
- 10SM
05:35
Clear
61°F / 16°C 59°F / 15°C 94% 30.06 in
(1018 mb)
Calm - 10SM
05:15
Clear
Fog And Mist
59°F / 15°C 59°F / 15°C 100% 30.06 in
(1018 mb)
Calm - 5SM
04:55
Clear
59°F / 15°C 59°F / 15°C 100% 30.04 in
(1017 mb)
Calm - 10SM
04:35
Clear
61°F / 16°C 59°F / 15°C 94% 30.04 in
(1017 mb)
Calm - 10SM
04:15
Clear
Fog And Mist
59°F / 15°C 59°F / 15°C 100% 30.04 in
(1017 mb)
Calm - 5SM
03:55
Clear
61°F / 16°C 59°F / 15°C 94% 30.04 in
(1017 mb)
Calm - 10SM
03:35
Clear
61°F / 16°C 59°F / 15°C 94% 30.04 in
(1017 mb)
N 3.5 mph
(N 6 kph)
- 10SM
03:15
Clear
61°F / 16°C 59°F / 15°C 94% 30.04 in
(1017 mb)
N 3.5 mph
(N 6 kph)
- 10SM
02:55
Clear
61°F / 16°C 59°F / 15°C 94% 30.04 in
(1017 mb)
NNW 3.5 mph
(NNW 6 kph)
- 10SM
02:35
Clear
61°F / 16°C 59°F / 15°C 94% 30.04 in
(1017 mb)
Calm - 10SM
02:15
Clear
63°F / 17°C 61°F / 16°C 94% 30.04 in
(1017 mb)
Calm - 10SM
01:55
Clear
63°F / 17°C 59°F / 15°C 88% 30.04 in
(1017 mb)
Calm - 10SM
01:35
Clear
61°F / 16°C 59°F / 15°C 94% 30.04 in
(1017 mb)
Calm - 10SM
01:15
Clear
63°F / 17°C 59°F / 15°C 88% 30.04 in
(1017 mb)
Calm - 10SM
00:55
Clear
63°F / 17°C 61°F / 16°C 94% 30.04 in
(1017 mb)
Calm - 10SM
00:35
Clear
63°F / 17°C 59°F / 15°C 88% 30.04 in
(1017 mb)
Calm - 10SM
00:15
Clear
63°F / 17°C 59°F / 15°C 88% 30.04 in
(1017 mb)
Calm - 10SM
Time Weather Temperature Dewpoint Humidity Pressure Winds Precip Visibility


Weather for websites

WeatherForYou.com, LLC is not responsible for any damages or problems caused by this service. Current weather conditions are obtained from the closest station including government and personal stations which may have varying degrees of accuracy. Weather forecasts are derived from the NOAA NDFD. Like all things, this site belongs to Jesus Christ... He just trusts me to maintain it. If you have any questions or comments email webmaster@weatherforyou.com

Copyright © 2014, WeatherForYou.com LLC. All rights reserved.